Regional Weather Roundup
Issued by NWS Cleveland, OH

Home | Current Version | Previous Version | Graphics & Text | Print | Product List | Glossary On
Versions: 1 2 3 4 5 6 7 8 9 10 11 12 13 14 15 16 17 18 19 20 21 22 23 24 25 26 27 28 29 30 31 32 33 34 35 36 37 38 39 40 41 42 43 44 45 46 47 48 49 50
000
ASUS41 KCLE 180602
RWRCLE
OHIO REGIONAL WEATHER ROUNDUP
NATIONAL WEATHER SERVICE CLEVELAND, OH
100 AM EST MON DEC 18 2017

NOTE: "FAIR" INDICATES FEW OR NO CLOUDS BELOW 12,000 FEET WITH NO
SIGNIFICANT WEATHER AND/OR OBSTRUCTIONS TO VISIBILITY.

OHZ001>008-015>018-024>027-034-035-043-044-180700-
   NORTHWEST OHIO

CITY           SKY/WX    TMP DP  RH WIND       PRES   REMARKS
DEFIANCE       CLOUDY    39  33  79 SW9       30.02F
FINDLAY        CLOUDY    38  32  79 S8        30.03F
TOLEDO EXPRESS CLOUDY    39  36  89 SW10      30.01F
TOLEDO EXEC    CLOUDY    38  34  85 SW8       30.03F
LIMA           CLOUDY    38  34  85 S8        30.03F
$$

OHZ009>014-019>023-028>033-038-089-180700-
   NORTHEAST OHIO

CITY           SKY/WX    TMP DP  RH WIND       PRES   REMARKS
CLE-HOPKINS    CLOUDY    38  34  85 SW7       30.07F
CLE-LAKEFRONT  CLOUDY    40  33  76 S12G21    30.04F
CUY CO. ARPT   NOT AVBL
LORAIN-ELYRIA  CLOUDY    36  30  79 SW8       30.05F
ASHTABULA      CLOUDY    36  33  89 S8        30.06F
AKRON-CANTON   CLOUDY    36  31  82 S5        30.06F
WOOSTER        CLOUDY    34  32  92 CALM      30.06F
MANSFIELD      CLOUDY    37  32  82 SW8       30.04F
YOUNGSTOWN     CLOUDY    36  32  85 S6        30.06F
$$

OHZ042-051>053-060>062-070>072-077>081-180700-
  SOUTHWEST OHIO

CITY           SKY/WX    TMP DP  RH WIND       PRES   REMARKS
CINC-COVINGTON DRIZZLE   41  40  96 SW7       30.09F
CINC-LUNKEN    CLOUDY    42  39  89 S6        30.12F
HAMILTON       CLOUDY    38  34  85 CALM      30.10F
DAYTON         CLOUDY    40  35  83 SW9       30.07F
WRIGHT-PAT AFB CLOUDY    41  36  82 S9        30.06F
DAYTON GENERAL CLOUDY    40  34  79 S7        30.07F
WILMINGTON     CLOUDY    39  38  96 SW8       30.08F
$$

OHZ036-037-039>041-045>050-054>059-063>069-073>076-082>088-180700-
  CENTRAL AND SOUTHEAST OHIO

CITY           SKY/WX    TMP DP  RH WIND       PRES   REMARKS
COLUMBUS       MOCLDY    39  33  79 S3        30.08F
OSU AIRPORT    PTCLDY    37  34  89 S6        30.06F
BOLTON FIELD   MOCLDY    37  35  89 SW8       30.07F
RICKENBACK AFB MOCLDY    38  35  90 S7        30.08F
NEWARK         CLOUDY    38  31  76 S5        30.08F
MARION         CLOUDY    37  32  82 S6        30.06F
LANCASTER      CLOUDY    41  35  79 CALM      30.09F
ZANESVILLE     CLOUDY    39  32  76 S5        30.09F
NEW PHILLY     NOT AVBL
$$




USA.gov is the U.S. government's official web portal to all federal, state and local government web resources and services.